Regional Weather Roundup
Issued by NWS

Home | Current Version | Previous Version | Text Only | Print | Product List | Glossary Off
Versions: 1 2 3 4 5 6 7 8 9 10 11 12 13 14 15 16 17 18 19 20 21 22 23 24 25 26 27 28 29 30 31 32 33 34 35 36 37 38 39 40 41 42 43 44 45 46 47 48 49 50

000
ASUS43 KMKX 231221
RWRWI

WISCONSIN REGIONAL WEATHER ROUNDUP
NATIONAL WEATHER SERVICE MILWAUKEE/SULLIVAN WI
700 AM CDT WED AUG 23 2017

NOTE: "FAIR" INDICATES FEW OR NO CLOUDS BELOW 12,000 FEET WITH NO
SIGNIFICANT WEATHER AND/OR OBSTRUCTIONS TO VISIBILITY.

WIZ001-002-006>008-014>016-023>028-231300-
NORTHWEST WISCONSIN

CITY           SKY/WX    TMP DP  RH WIND       PRES   REMARKS
SUPERIOR ARPT    N/A     48  48 100 CALM      30.07R
6HR MIN TEMP:  46; 6HR MAX TEMP:  55;

ASHLAND        MOCLDY    53  52  96 SW3       30.04R
6HR MIN TEMP:  50; 6HR MAX TEMP:  56;

HAYWARD        PTCLDY    46  44  93 CALM      30.07R
6HR MIN TEMP:  43; 6HR MAX TEMP:  56;

SIREN          CLEAR     47  47  97 CALM      30.09R FOG
6HR MIN TEMP:  47; 6HR MAX TEMP:  53;

CUMBERLAND     CLEAR     52  48  87 NW5       30.08R
RICE LAKE      CLEAR     49  49  97 CALM      30.09R
6HR MIN TEMP:  48; 6HR MAX TEMP:  55;

CHETEK         CLEAR     49  49  99 CALM      30.08R
6HR MIN TEMP:  49; 6HR MAX TEMP:  58;

LADYSMITH      CLEAR     53  51  94 NW5       30.08R
6HR MIN TEMP:  52; 6HR MAX TEMP:  56;

EAU CLAIRE     MOCLDY    52  49  89 W5        30.07R
6HR MIN TEMP:  51; 6HR MAX TEMP:  57;

MENOMONIE      CLEAR     53  50  90 W5        30.08R
6HR MIN TEMP:  53; 6HR MAX TEMP:  58;

NEW RICHMOND   CLEAR     50  49  95 CALM      30.10R
6HR MIN TEMP:  50; 6HR MAX TEMP:  55;

OSCEOLA        CLEAR     47  47 100 CALM      30.12R
6HR MIN TEMP:  46; 6HR MAX TEMP:  57;

$$

WIZ003>005-009-010-017-018-231300-
NORTH CENTRAL WISCONSIN

CITY           SKY/WX    TMP DP  RH WIND       PRES   REMARKS
MANITOWISH WTR CLOUDY    53  53 100 NW5       30.03R
6HR MIN TEMP:  51; 6HR MAX TEMP:  54;

ARBOR VITAE    PTCLDY    57  55  93 NW5       30.03R
6HR MIN TEMP:  57; 6HR MAX TEMP:  57;

WOODRUFF       PTCLDY    57  55  93 NW5       30.03R
6HR MIN TEMP:  57; 6HR MAX TEMP:  57;

RHINELANDER    MOCLDY    54  53  97 W7        30.03R
6HR MIN TEMP:  48; 6HR MAX TEMP:  53;

EAGLE RIVER    MOCLDY    53  53 100 CALM      30.01R
6HR MIN TEMP:  51; 6HR MAX TEMP:  54;

LAND O LAKES   MOCLDY    52  50  93 NW3       30.02S
6HR MIN TEMP:  52; 6HR MAX TEMP:  56;

PHILLIPS       CLOUDY    49  49 100 CALM      30.04R
6HR MIN TEMP:  48; 6HR MAX TEMP:  54;

TOMAHAWK         N/A     51  50  97 NW6       30.04R
6HR MIN TEMP:  44; 6HR MAX TEMP:  51;

MEDFORD        CLEAR     48  48  99 W3        30.05R
6HR MIN TEMP:  46; 6HR MAX TEMP:  53;

MERRILL        CLEAR     46  46 100 CALM      30.04R
$$

WIZ029-030-035-036-043>047-231300-
CENTRAL WISCONSIN

CITY           SKY/WX    TMP DP  RH WIND       PRES   REMARKS
WAUSAU         PTCLDY    53  51  93 NW5       30.02R
6HR MIN TEMP:  52; 6HR MAX TEMP:  56;

MOSINEE        PTCLDY    52  52 100 NW5       30.04R
MARSHFIELD     CLEAR     52  49  89 NW8       30.04R
6HR MIN TEMP:  50; 6HR MAX TEMP:  54;

STEVENS POINT  CLEAR     51  50  97 W3        30.04R
6HR MIN TEMP:  50; 6HR MAX TEMP:  57;

WAUPACA        CLEAR     56  52  86 W5        30.02R
6HR MIN TEMP:  55; 6HR MAX TEMP:  60;

WAUTOMA        CLEAR     53  50  89 W6        30.04R
6HR MIN TEMP:  51; 6HR MAX TEMP:  56;

WISC RAPIDS    CLEAR     51  49  92 NW3       30.06R
6HR MIN TEMP:  50; 6HR MAX TEMP:  57;

CAMP DOUGLAS   CLEAR     48  48 100 W5        30.05R
$$

WIZ011>013-019>022-031-037>040-048>050-231300-
NORTHEAST WISCONSIN

CITY           SKY/WX    TMP DP  RH WIND       PRES   REMARKS
ANTIGO         CLOUDY    52  52 100 NW8       30.02R
6HR MIN TEMP:  48; 6HR MAX TEMP:  52;

SHAWANO        CLEAR     55  52  90 W5        30.00R
6HR MIN TEMP:  55; 6HR MAX TEMP:  61;

OCONTO         CLEAR     53  51  93 W3        29.98R
6HR MIN TEMP:  51; 6HR MAX TEMP:  56;

STURGEON BAY   PTCLDY    58  54  86 NW7       29.98R
6HR MIN TEMP:  57; 6HR MAX TEMP:  62;

GREEN BAY      CLEAR     54  53  97 W7        29.99R
6HR MIN TEMP:  52; 6HR MAX TEMP:  58;

MANITOWOC      CLEAR     56  50  80 W9        30.00R
6HR MIN TEMP:  55; 6HR MAX TEMP:  62;

APPLETON       PTCLDY    52  50  93 W9        29.99R
CLINTONVILLE   PTCLDY    54  50  87 W5        30.01R
OSHKOSH        CLEAR     54  49  83 W3        30.01R
6HR MIN TEMP:  53; 6HR MAX TEMP:  59;

$$

WIZ032>034-041-042-053>061-231300-
SOUTHWEST WISCONSIN

CITY           SKY/WX    TMP DP  RH WIND       PRES   REMARKS
LA CROSSE      CLEAR     56  52  86 SE5       30.07R
6HR MIN TEMP:  54; 6HR MAX TEMP:  65;

SPARTA         CLEAR     45  44  97 CALM      30.08R
6HR MIN TEMP:  43; 6HR MAX TEMP:  49;

VIROQUA        CLEAR     51  51  98 W5        30.08R
6HR MIN TEMP:  51; 6HR MAX TEMP:  55;

BOSCOBEL       CLEAR     52  50  93 CALM      30.08R
6HR MIN TEMP:  51; 6HR MAX TEMP:  55;

PRAIRIE DU CHI CLEAR     54  48  81 CALM      30.09R
6HR MIN TEMP:  51; 6HR MAX TEMP:  60;

PLATTEVILLE    CLEAR     51  51 100 W3        30.08R
6HR MIN TEMP:  50; 6HR MAX TEMP:  55;

$$

WIZ056-057-062-063-064-067-068-231300-
SOUTH CENTRAL WISCONSIN

CITY           SKY/WX    TMP DP  RH WIND       PRES   REMARKS
REEDSBURG      CLEAR     50  50 100 CALM      30.06R
6HR MIN TEMP:  49; 6HR MAX TEMP:  54;

BARABOO/DELLS  CLEAR     55  49  80 W5        30.05S
6HR MIN TEMP:  53; 6HR MAX TEMP:  56;

LONE ROCK      CLEAR     51  50  96 W3        30.07R
6HR MIN TEMP:  50; 6HR MAX TEMP:  56;

MINERAL POINT  CLEAR     52  52 100 W3        30.07S
MADISON        CLEAR     56  51  84 NW6       30.04R
6HR MIN TEMP:  55; 6HR MAX TEMP:  60;

MIDDLETON      CLEAR     55  52  88 CALM      30.06R
6HR MIN TEMP:  55; 6HR MAX TEMP:  57;

WATERTOWN      CLEAR     55  53  94 W5        30.03S
6HR MIN TEMP:  54; 6HR MAX TEMP:  56;

MONROE         CLEAR     54  48  82 W10       30.06R
JANESVILLE     CLEAR     54  54 100 CALM      30.04S
$$

WIZ051-052-058>065-066-070>072-231300-
SOUTHEAST WISCONSIN

CITY           SKY/WX    TMP DP  RH WIND       PRES   REMARKS
MILWAUKEE      CLEAR     62  51  67 NW8       30.01R
6HR MIN TEMP:  61; 6HR MAX TEMP:  65;

WAUKESHA       CLEAR     55  50  82 W12       30.03R
MILWAUKEE/TIMM CLEAR     55  46  71 W9        30.02R
RACINE         CLEAR     58  52  80 W7        30.03R
6HR MIN TEMP:  57; 6HR MAX TEMP:  61;

KENOSHA        CLEAR     56  51  84 W7        30.02R
6HR MIN TEMP:  53; 6HR MAX TEMP:  58;

FOND DU LAC    CLEAR     56  49  77 W5        30.02R
6HR MIN TEMP:  54; 6HR MAX TEMP:  59;

SHEBOYGAN      CLEAR     56  54  93 W7        30.00R
6HR MIN TEMP:  55; 6HR MAX TEMP:  58;

WEST BEND      CLEAR     55  50  82 W8        30.02R
JUNEAU         CLEAR     53  50  88 CALM      30.04S
6HR MIN TEMP:  51; 6HR MAX TEMP:  56;

$$

LSZ147-162-231300-
LAKE SUPERIOR

STATION/POSITION TIME  TEMP    WIND        PRES    WAVE
                       AIR SEA DIR/SP/G            HT/PER
                 (UTC) (F)     (DEG/KT/KT) (MB)    (FT/S)
W MID LAKE BUOY  1150   58 59  340/ 16/ 19 1016.0R   2/ 4
DEVILS ISLAND    1200   59     310/ 12/ 13 1017.0R
SAXON HARBOR     1130   54     180/  5/  6 1016.3R
$$

LMZ867-665-643>646-231300-
LAKE MICHIGAN

STATION/POSITION TIME  TEMP    WIND        PRES    WAVE
                       AIR SEA DIR/SP/G            HT/PER
                 (UTC) (F)     (DEG/KT/KT) (MB)    (FT/S)
S GREEN BAY BUOY 1200   60 70  310/ 16/ 21 1014.9
N MID LAKE BUOY  1150   60 66  310/ 17/ 21 1013.8R   2/ 4
NORTHPORT PIER   1140   60     310/ 16/ 20 1013.9R
KEWAUNEE LAKESHO 1



USA.gov is the U.S. government's official web portal to all federal, state and local government web resources and services.